Regional Weather Roundup
Issued by NWS

Home | Current Version | Previous Version | Text Only | Print | Product List | Glossary On
Versions: 1 2 3 4 5 6 7 8 9 10 11 12 13 14 15 16 17 18 19 20 21 22 23 24 25 26 27 28 29 30 31 32 33 34 35 36 37 38 39 40 41 42 43 44 45 46 47 48 49 50
000
ASUS46 KSEW 180110
RWRWA

WASHINGTON REGIONAL WEATHER ROUNDUP
NATIONAL WEATHER SERVICE SEATTLE WA
600 PM PDT WED SEP 17 2014

NOTE:"FAIR" INDICATES FEW OR NO CLOUDS BELOW 12,000 FEET WITH NO
SIGNIFICANT WEATHER AND/OR OBSTRUCTIONS TO VISIBILITY.

WAZ505-507>509-180200-
SEATTLE, TACOMA, EVERETT, AND VICINITY

CITY           SKY/WX    TMP DP  RH WIND       PRES   REMARKS
EVERETT        CLOUDY    61  55  81 NW3       29.73R
BOEING FIELD   CLOUDY    68  54  60 NW5       29.71F
RENTON         CLOUDY    68  57  68 NW9       29.71S
SEATAC AIRPORT CLOUDY    67  54  63 N8        29.73F
JBLM-MCCHORD   CLOUDY    70  55  59 NE5       29.72S
PUYALLUP       NOT AVBL
JBLM-FT LEWIS  CLOUDY    69  56  61 NW2       29.72S
TACOMA NARROWS CLOUDY    69  56  62 NW5       29.71F
$$

WAZ001-503-506-510-514-515-180200-
NORTH INTERIOR

CITY           SKY/WX    TMP DP  RH WIND       PRES   REMARKS
BELLINGHAM     CLOUDY    67  58  72 CALM      29.70F
FRIDAY HARBOR  CLOUDY    64  56  75 CALM      29.73F
EASTSOUND      CLOUDY    61  57  88 CALM      29.71S
PORT ANGELES   CLOUDY    62  55  77 NW3       29.74S
NAS WHIDBEY    CLOUDY    59  54  83 W3        29.72S
BURLINGTON     MOSUNNY   64  59  82 NW7       29.71F
$$

WAZ020-022-039-040-504-511-512-180200-
SOUTHWEST INTERIOR

CITY           SKY/WX    TMP DP  RH WIND       PRES   REMARKS
SHELTON        CLOUDY    70  55  59 VRB3      29.69F
OLYMPIA        CLOUDY    69  56  62 SE7       29.73R
CHEHALIS       FAIR      73  57  56 CALM      29.72R
KELSO          CLOUDY    72  55  56 CALM      29.78R
VANCOUVER      CLOUDY    73  57  57 N7        29.68F
SCAPPOOSE, OR  LGT RAIN  73  58  59 NW7       29.70F
PORTLAND, OR   CLOUDY    73  59  61 NW6       29.69F
$$

WAZ021-516-517-180200-
WASHINGTON COAST

CITY           SKY/WX    TMP DP  RH WIND       PRES   REMARKS
FORKS          LGT RAIN  63  57  81 NW6       29.73S
HOQUIAM        LGT RAIN  62  59  90 W8        29.74F FOG
ASTORIA, OR    LGT RAIN  60  57  89 SW6       29.78R
$$

WAZ019-023-024-040-518-519-180200-
CASCADE MOUNTAINS AND COLUMBIA GORGE

CITY           SKY/WX    TMP DP  RH WIND       PRES   REMARKS
STAMPEDE PASS  NOT AVBL
TROUTDALE, OR  CLOUDY    74  56  53 S7        29.70S
THE DALLES, OR CLOUDY    79  50  36 NW17G25   29.61S
$$

WAZ026-027-041>044-520-521-180200-
EAST SLOPES

CITY           SKY/WX    TMP DP  RH WIND       PRES   REMARKS
OMAK           CLOUDY    84  42  22 S3        29.64F
WENATCHEE      CLOUDY    80  42  25 E9        29.63F
ELLENSBURG     CLOUDY    79  51  37 CALM      29.66F
YAKIMA         CLOUDY    79  49  34 CALM      29.65S
$$

WAZ028-034-035-180200-
COLUMBIA BASIN

CITY           SKY/WX    TMP DP  RH WIND       PRES   REMARKS
EPHRATA        CLOUDY    82  42  24 SW5       29.63F
MOSES LAKE     CLOUDY    83  44  25 NW7       29.64F
PASCO          CLOUDY    82  49  31 S7        29.61F
HERMISTON, OR  CLOUDY    82  42  24 E3        29.61F
$$

WAZ036>038-180200-
NORTHEAST WASHINGTON

CITY           SKY/WX    TMP DP  RH WIND       PRES   REMARKS
SPOKANE GEIGER CLOUDY    81  37  20 NE6       29.71F
SPOKANE FELTS  CLOUDY    82  41  23 CALM      29.69F
FAIRCHILD AFB  CLOUDY    80  37  21 NE5       29.72F
COEURDALENE,ID CLOUDY    81  43  26 NE8       29.70S
DEER PARK      CLOUDY    81  42  25 N3        29.71F
$$

WAZ029>033-180200-
SOUTHEAST WASHINGTON

CITY           SKY/WX    TMP DP  RH WIND       PRES   REMARKS
PULLMAN        CLOUDY    82  36  19 SW7       29.74S
LEWISTON, ID   CLOUDY    83  46  27 W3        29.66S SMOKE
WALLA WALLA    CLOUDY    81  44  27 NW3       29.65F
PENDLETON, OR  CLOUDY    82  37  20 NW8       29.64F
$$


USA.gov is the U.S. government's official web portal to all federal, state and local government web resources and services.